EHI
0 0 0 0 0 0 0 0 0 0 0 0 0 0 0 0 0 0 0 0 0 0 0 0 0 0 0 0 0 0 0 0 0 0 0 0 0 0 0 0 0 0 0
0 0 0 0 0 0 0 0 0 0 0 0 0 0 0 0 0 0 0 0 0 0 0 0 0 0 0 0 0 0 0 0 0 0 0 0 0 0 0 0 0 0 0
0 0 0 0 0 0 0 0 0 0 0 0 0 0 0 0 0 0 0 0 0 0 0 0 0 0 0 0 0 0 0 0 0 0 0 0 0 0 0 0 0 0 0
0 0 0 0 0 0 0 0 0 0 0 0 0 0 0 0 0 0 0 0 0 0 0 0 0 0 0 0 0 0 0 0 0 0 0 0 0 0 0 0 0 0 0
0 0 0 0 0 0 0 0 0 0 0 0 0 0 0 0 0 0 0 0 0 0 0 0 0 0 0 0 0 0 0 0 0 0 0 0 0 0 0 0 0 0 0
0 0 0 0 0 0 0 0 0 0 0 0 0 0 0 0 0 0 0 0 0 0 0 0 0 0 0 0 0 0 0 0 0 0 0 0 0 0 0 0 0 0 0
0 0 0 0 0 0 0 0 0 0 0 0 0 0 0 0 0 0 0 0 0 0 0 0 0 0 0 0 0 0 0 0 0 0 0 0 0 0 0 0 0 0 0
0 0 0 0 0 0 0 0 0 0 0 0 0 0 0 0 0 0 0 0 0 0 0 0 0 0 0 0 0 0 0 0 0 0 0 0 0 0 0 0 0 0 0
0 0 0 0 0 0 0 0 0 0 0 0 0 0 0 0 0 0 0 0 0 0 0 0 0 0 0 0 0 0 0 0 0 0 0 0 0 0 0 0 0 0 0
0 0 0 0 0 0 0 0 0 0 0 0 0 0 0 0 0 0 0 0 0 0 0 0 0 0 0 0 0 0 0 0 0 0 0 0 0 0 0 0 0 0 0
0 0 0 0 0 0 0 0 0 0 0 0 0 0 0 0 0 0 0 0 0 0 0 0 0 0 0 0 0 0 0 0 0 0 0 0 0 0 0 0 0 0 0
0 0 0 0 0 0 0 0 0 0 0 0 0 0 0 0 0 0 0 0 0 0 0 0 0 0 0 0 0 0 0 0 0 0 0 0 0 0 0 0 0 0 0
0 0 0 0 0 0 0 0 0 0 0 0 0 0 0 0 0 0 0 0 0 0 0 0 0 0 0 0 0 0 0 0 0 0 0 0 0 0 0 0 0 0 0
0 0 0 0 0 0 0 0 0 0 0 0 0 0 0 0 0 0 0 0 0 0 0 0 0 0 0 0 0 0 0 0 0 0 0 0 0 0 0 0 0 0 0
0 0 0 0 0 0 0 0 0 0 0 0 0 0 0 0 0 0 0 0 0 0 0 0 0 0 0 0 0 0 0 0 0 0 0 0 0 0 0 0 0 0 0
0 0 0 0 0 0 0 0 0 0 0 0 0 0 0 0 0 0 0 0 0 0 0 0 0 0 0 0 0 0 0 0 0 0 0 0 0 0 0 0 0 0 0
0 0 0 0 0 0 0 0 0 0 0 0 0 0 0 0 0 0 0 0 0 0 0 0 0 0 0 0 0 0 0 0 0 0 0 0 0 0 0 0 0 0 0
0 0 0 0 0 0 0 0 0 0 0 0 0 0 0 0 0 0 0 0 0 0 0 0 0 0 0 0 0 0 0 0 0 0 0 0 0 0 0 0 0 0 0
0 0 0 0 0 0 0 0 0 0 0 0 0 0 0 0 0 0 0 0 0 0 0 0 0 0 0 0 0 0 0 0 0 0 0 0 0 0 0 0 0 0 0
0 0 0 0 0 0 0 0 0 0 0 0 0 0 0 0 0 0 0 0 0 0 0 0 0 0 0 0 0 0 0 0 0 0 0 0 0 0 0 0 0 0 0
0 0 0 0 0 0 0 0 0 0 0 0 0 0 0 0 0 0 0 0 0 0 0 0 0 0 0 0 0 0 0 0 0 0 0 0 0 0 0 0 0 0 0
0 0 0 0 0 0 0 0 0 0 0 0 0 0 0 0 0 0 0 0 0 0 0 0 0 0 0 0 0 0 0 0 0 0 0 0 0 0 0 0 0 0 0
0 0 0 0 0 0 0 0 0 0 0 0 0 0 0 0 0 0 0 0 0 0 0 0 0 0 0 0 0 0 0 0 0 0 0 0 0 0 0 0 0 0 0
0 0 0 0 0 0 0 0 0 0 0 0 0 0 0 0 0 0 0 0 0 0 0 0 0 0 0 0 0 0 0 0 0 0 0 0 0 0 0 0 0 0 0
0 0 0 0 0 0 0 0 0 0 0 0 0 0 0 0 0 0 0 0 0 0 0 0 0 0 0 0 0 0 0 0 0 0 0 0 0 0 0 0 0 0 0
0 0 0 0 0 0 0 0 0 0 0 0 0 0 0 0 0 0 0 0 0 0 0 0 0 0 0 0 0 0 0 0 0 0 0 0 0 0 0 0 0 0 0
Wind_Speed
5 6 14 15 14 13 11 10 11 11 11 11 11 11 11 11 11 10 11 11 12 13 13 13 14 14 14 14 15 15 15 16 16 17 18 17 16 15 15 15 14 9 15
8 8 16 16 15 14 12 11 12 11 11 11 11 11 11 11 11 10 10 11 11 12 13 13 13 13 13 13 14 14 14 14 15 16 17 16 15 15 15 15 14 10 15
9 9 12 17 15 14 13 11 12 11 11 10 10 10 10 10 10 10 10 10 11 11 12 12 12 12 12 12 12 12 13 13 14 15 15 9 9 14 14 14 14 14 13
10 9 8 17 16 15 13 12 12 11 10 10 10 10 10 10 10 10 10 10 10 10 11 11 11 11 11 11 11 12 13 13 13 13 8 7 8 11 13 13 13 13 12
9 8 10 18 16 15 14 13 12 11 11 10 10 9 9 9 9 9 9 9 9 10 10 10 10 10 10 10 11 11 11 11 12 10 6 7 7 10 11 11 11 11 11
8 7 10 18 16 15 15 14 13 12 11 10 9 9 9 8 8 8 8 8 8 8 9 9 9 9 9 9 9 10 10 10 9 5 6 6 6 8 10 10 9 9 9
9 7 8 17 16 16 15 14 13 11 11 10 10 9 8 8 7 7 6 6 7 7 7 8 8 8 8 8 8 8 8 8 5 4 4 5 6 9 9 9 9 8 8
9 7 7 16 16 15 15 14 12 11 11 10 9 8 8 7 6 6 5 5 5 5 6 6 7 7 7 7 7 7 8 7 4 3 3 4 8 9 8 8 8 8 8
7 7 5 7 10 14 14 14 13 11 10 10 9 8 7 6 5 5 4 3 3 3 4 4 4 5 5 6 6 7 7 6 3 2 3 3 8 10 9 8 8 8 8
6 6 5 5 6 7 8 12 12 11 10 9 9 8 7 6 4 4 3 2 1 1 2 2 3 4 5 6 7 7 6 4 2 2 2 4 10 11 11 10 9 9 9
7 5 5 5 6 6 6 8 9 10 9 8 7 8 6 3 2 2 3 3 2 2 2 3 4 5 5 5 7 7 5 1 2 3 3 8 11 12 12 12 11 11 11
11 9 6 6 6 6 5 5 4 4 4 4 3 4 3 3 2 2 3 4 4 3 3 4 5 5 3 2 4 5 1 2 2 3 4 11 13 14 14 14 13 13 13
11 10 8 7 6 6 4 4 3 2 3 3 4 4 3 3 2 1 1 1 2 2 1 3 3 1 1 2 2 2 3 3 2 3 5 12 14 15 15 15 15 15 15
9 11 10 8 7 6 5 4 4 3 3 3 3 5 3 2 2 2 2 2 2 1 2 2 2 3 3 3 3 4 4 3 3 3 5 12 14 15 16 17 17 17 16
10 11 10 9 8 7 5 4 4 4 4 4 3 3 4 3 3 3 2 2 2 2 2 2 2 3 3 3 3 4 5 5 5 4 4 11 14 15 17 17 18 18 18
9 11 10 10 9 7 6 5 4 4 3 3 3 3 4 3 3 3 2 2 2 2 2 2 3 3 3 3 4 4 5 5 5 5 4 7 12 14 16 17 17 18 18
8 9 10 10 9 8 7 6 4 3 3 3 3 3 3 3 3 3 2 2 2 2 2 1 2 1 2 2 4 4 4 4 5 5 5 4 5 10 14 15 15 16 16
6 8 9 9 9 8 6 5 3 3 3 2 2 2 2 3 3 2 2 1 1 1 1 1 1 1 2 2 3 4 4 4 5 5 4 4 3 4 7 12 13 14 15
6 8 9 8 9 8 6 5 4 3 3 2 2 2 2 2 2 2 1 1 1 1 0 0 0 1 2 3 3 4 4 4 5 5 4 4 4 4 3 7 11 12 14
5 7 8 8 7 7 6 5 4 4 3 2 2 2 3 2 3 2 2 1 2 1 1 1 1 1 1 2 4 4 5 5 4 3 4 3 3 3 3 4 4 7 13
5 7 7 8 7 7 5 4 4 3 2 2 2 3 3 3 3 3 2 2 2 2 1 1 1 1 2 2 3 4 4 4 3 3 2 3 4 4 4 4 3 3 5
5 6 7 8 8 6 5 4 3 4 3 3 2 3 4 3 3 3 3 2 2 2 2 2 1 1 1 2 1 2 5 6 4 3 3 3 4 3 4 5 5 6 5
6 7 7 7 7 7 7 5 5 4 3 2 2 2 3 3 3 3 3 3 2 2 1 1 1 1 1 2 0 1 1 4 5 4 4 3 3 3 4 5 6 7 7
5 5 7 7 7 7 7 7 6 4 3 2 2 2 2 3 3 3 3 3 2 2 1 1 0 1 1 1 2 1 3 3 3 5 4 3 4 5 5 6 7 7 8
6 6 6 7 6 6 6 7 7 5 4 3 2 3 2 3 3 3 3 3 2 1 1 1 1 0 1 2 2 2 2 2 4 5 7 5 4 4 5 6 6 7 8
5 6 6 7 6 6 6 6 7 8 6 5 3 2 1 1 2 3 2 2 2 1 1 1 1 1 2 2 2 3 3 3 3 4 6 6 7 4 5 6 6 6 6
Wind_Direction
205 198 180 161 156 152 149 142 132 122 112 107 102 96 91 86 82 75 70 65 59 57 56 55 53 55 56 55 53 51 51 49 46 43 39 40 51 54 52 51 47 33 41
163 176 177 162 158 154 146 139 133 124 117 112 107 102 96 89 84 78 73 67 63 59 57 56 54 53 55 55 52 49 49 49 46 43 39 28 33 49 49 47 46 45 44
148 167 174 163 160 156 150 145 138 129 123 118 112 107 100 93 87 81 75 71 66 62 60 58 55 54 54 54 51 49 50 49 47 42 33 18 12 42 45 44 43 43 41
152 162 168 165 162 159 154 150 143 135 129 124 119 113 105 97 89 82 77 72 68 64 61 59 57 55 55 53 51 50 50 48 45 40 26 12 4 32 39 39 38 38 37
152 158 170 166 164 162 157 154 148 142 137 133 125 117 109 100 92 84 78 73 69 65 61 59 56 55 54 52 49 47 48 46 42 34 18 8 359 21 33 32 32 32 31
152 157 172 167 167 165 161 158 151 146 144 140 132 124 114 104 96 88 81 75 70 66 62 59 55 53 49 47 45 43 45 46 41 25 14 3 349 9 26 26 24 23 22
152 159 174 169 170 168 165 163 157 154 152 146 140 132 122 113 105 97 89 81 73 65 59 54 52 49 45 41 38 38 40 42 52 25 7 355 338 358 11 13 11 10 11
152 158 172 175 174 171 170 167 164 163 160 156 150 143 135 128 123 118 105 92 78 65 56 50 44 40 36 32 30 29 30 40 39 16 350 340 332 342 351 356 353 351 353
148 155 174 177 174 174 174 172 169 171 168 163 161 154 147 143 143 134 122 108 85 60 46 38 31 24 20 17 17 16 16 30 50 349 329 321 320 329 332 334 333 331 331
153 163 175 176 169 168 172 174 173 175 173 170 167 159 155 157 153 143 128 135 120 40 12 4 360 356 359 359 357 357 5 27 4 323 310 302 315 320 321 321 319 317 314
174 179 180 177 168 162 165 176 174 177 178 175 167 161 151 132 119 131 167 209 245 270 294 317 334 340 357 353 341 341 2 345 310 295 289 299 311 316 316 316 315 311 307
187 189 186 179 171 163 167 165 163 165 167 158 148 148 138 144 160 164 211 230 252 280 296 304 318 340 1 338 320 329 318 292 285 279 282 299 307 311 313 312 311 308 305
189 189 188 182 173 166 162 156 154 150 150 154 157 155 152 153 163 171 200 265 276 283 294 305 320 320 298 280 284 287 281 281 270 271 281 295 302 306 308 308 308 306 304
186 194 190 182 174 170 161 160 158 156 159 165 174 169 161 166 186 195 206 227 237 233 244 260 270 277 278 271 268 275 278 271 267 268 277 292 300 304 305 305 305 304 302
193 194 190 182 180 170 161 165 164 168 174 179 180 180 175 180 198 203 212 216 227 226 229 242 254 266 272 274 269 266 272 271 268 263 270 287 296 300 303 305 305 305 303
195 193 187 185 181 169 169 170 172 175 177 177 185 189 187 188 191 196 210 218 227 226 229 234 248 261 270 274 279 275 272 274 271 270 265 282 293 300 305 307 307 307 305
193 186 186 184 176 172 172 173 168 170 169 175 184 188 188 186 187 188 201 224 237 231 235 250 267 266 276 282 283 284 279 274 273 273 274 269 283 297 305 311 313 313 312
177 175 180 179 172 171 167 164 157 158 158 165 164 167 179 179 172 173 187 220 228 183 182 235 268 286 287 291 290 289 284 280 277 277 278 280 280 286 303 314 321 325 325
170 165 166 165 165 162 151 141 130 125 126 126 122 121 130 136 145 147 155 177 123 108 79 343 354 277 295 304 294 285 281 277 280 288 289 290 290 290 290 312 324 330 331
144 148 150 146 147 139 127 116 106 98 92 88 91 91 90 89 97 106 102 83 83 84 50 29 345 317 291 302 301 296 285 286 291 289 291 298 298 302 307 305 315 323 328
122 134 144 144 144 140 134 132 128 121 106 86 74 73 76 80 87 96 95 77 73 79 61 34 20 355 335 342 341 322 311 309 313 292 289 304 312 316 319 312 306 304 312
138 138 140 145 147 148 139 130 124 123 110 93 78 66 61 70 79 92 95 88 78 77 54 44 48 19 338 9 15 339 334 334 333 319 320 308 305 320 319 315 312 305 297
149 151 147 145 143 137 129 114 99 87 79 74 65 57 38 60 74 85 91 93 84 89 75 40 73 98 307 318 258 209 318 297 304 302 299 292 297 306 304 305 298 293 291
161 147 138 137 135 135 137 138 138 137 138 142 128 98 58 55 65 76 88 91 89 87 68 2 76 176 190 280 300 246 228 232 278 304 299 287 287 288 287 291 290 288 285
153 146 138 131 128 132 134 138 130 123 126 122 109 97 73 52 58 69 83 84 79 73 53 11 354 238 208 224 239 253 262 255 233 258 286 294 291 262 267 273 277 279 280
147 144 141 135 130 133 132 133 135 136 138 134 130 120 97 67 54 55 77 79 76 66 21 323 284 266 243 240 240 229 227 240 241 243 269 288 292 277 268 263 268 273 278